Year,Month,Day,Hour,Minute,Value (Times are PST for temperature in C)
2017,08,15,00,00,14.70
2017,08,15,00,01,14.70
2017,08,15,00,02,14.70
2017,08,15,00,03,14.70
2017,08,15,00,04,14.70
2017,08,15,00,05,14.70
2017,08,15,00,06,14.70
2017,08,15,00,07,14.70
2017,08,15,00,08,14.70
2017,08,15,00,09,14.70
2017,08,15,00,10,14.70
2017,08,15,00,11,14.70
2017,08,15,00,12,14.70
2017,08,15,00,13,14.70
2017,08,15,00,14,14.70
2017,08,15,00,15,14.70
2017,08,15,00,16,14.70
2017,08,15,00,17,14.70
2017,08,15,00,18,14.70
2017,08,15,00,19,14.70
2017,08,15,00,20,14.70
2017,08,15,00,21,14.70
2017,08,15,00,22,14.70
2017,08,15,00,23,14.70
2017,08,15,00,24,14.70
2017,08,15,00,25,14.70
2017,08,15,00,26,14.70
2017,08,15,00,27,14.70
2017,08,15,00,28,14.70
2017,08,15,00,29,14.70
2017,08,15,00,30,14.70
2017,08,15,00,31,14.70
2017,08,15,00,32,14.70
2017,08,15,00,33,14.70
2017,08,15,00,34,14.70
2017,08,15,00,35,14.70
2017,08,15,00,36,14.70
2017,08,15,00,37,14.70
2017,08,15,00,38,14.70
2017,08,15,00,39,14.70
2017,08,15,00,40,14.70
2017,08,15,00,41,14.70
2017,08,15,00,42,14.70
2017,08,15,00,43,14.70
2017,08,15,00,44,14.60
2017,08,15,00,45,14.60
2017,08,15,00,46,14.60
2017,08,15,00,47,14.60
2017,08,15,00,48,14.60
2017,08,15,00,49,14.60
2017,08,15,00,50,14.60
2017,08,15,00,51,14.60
2017,08,15,00,52,14.60
2017,08,15,00,53,14.60
2017,08,15,00,54,14.60
2017,08,15,00,55,14.60
2017,08,15,00,56,14.60
2017,08,15,00,57,14.60
2017,08,15,00,58,14.60
2017,08,15,00,59,14.60
2017,08,15,01,00,14.60
2017,08,15,01,01,14.60
2017,08,15,01,02,14.60
2017,08,15,01,03,14.60
2017,08,15,01,04,14.60
2017,08,15,01,05,14.60
2017,08,15,01,06,14.60
2017,08,15,01,07,14.60
2017,08,15,01,08,14.60
2017,08,15,01,09,14.60
2017,08,15,01,10,14.60
2017,08,15,01,11,14.50
2017,08,15,01,12,14.50
2017,08,15,01,13,14.50
2017,08,15,01,14,14.50
2017,08,15,01,15,14.50
2017,08,15,01,16,14.60
2017,08,15,01,17,14.60
2017,08,15,01,18,14.60
2017,08,15,01,19,14.60
2017,08,15,01,20,14.60
2017,08,15,01,21,14.60
2017,08,15,01,22,14.60
2017,08,15,01,23,14.60
2017,08,15,01,24,14.60
2017,08,15,01,25,14.60
2017,08,15,01,26,14.60
2017,08,15,01,27,14.60
2017,08,15,01,28,14.60
2017,08,15,01,29,14.50
2017,08,15,01,30,14.60
2017,08,15,01,31,14.50
2017,08,15,01,32,14.50
2017,08,15,01,33,14.50
2017,08,15,01,34,14.50
2017,08,15,01,35,14.50
2017,08,15,01,36,14.50
2017,08,15,01,37,14.50
2017,08,15,01,38,14.50
2017,08,15,01,39,14.40
2017,08,15,01,40,14.40
2017,08,15,01,41,14.40
2017,08,15,01,42,14.40
2017,08,15,01,43,14.40
2017,08,15,01,44,14.40
2017,08,15,01,45,14.40
2017,08,15,01,46,14.40
2017,08,15,01,47,14.40
2017,08,15,01,48,14.30
2017,08,15,01,49,14.30
2017,08,15,01,50,14.30
2017,08,15,01,51,14.30
2017,08,15,01,52,14.30
2017,08,15,01,53,14.30
2017,08,15,01,54,14.30
2017,08,15,01,55,14.30
2017,08,15,01,56,14.30
2017,08,15,01,57,14.20
2017,08,15,01,58,14.20
2017,08,15,01,59,14.20
2017,08,15,02,00,14.20
2017,08,15,02,01,14.10
2017,08,15,02,02,14.20
2017,08,15,02,03,14.10
2017,08,15,02,04,14.10
2017,08,15,02,05,14.10
2017,08,15,02,06,14.10
2017,08,15,02,07,14.10
2017,08,15,02,08,14.10
2017,08,15,02,09,14.10
2017,08,15,02,10,14.10
2017,08,15,02,11,14.10
2017,08,15,02,12,14.10
2017,08,15,02,13,14.10
2017,08,15,02,14,14.10
2017,08,15,02,15,14.10
2017,08,15,02,16,14.10
2017,08,15,02,17,14.10
2017,08,15,02,18,14.10
2017,08,15,02,19,14.00
2017,08,15,02,20,14.00
2017,08,15,02,21,14.00
2017,08,15,02,22,13.90
2017,08,15,02,23,13.90
2017,08,15,02,24,13.90
2017,08,15,02,25,13.90
2017,08,15,02,26,13.90
2017,08,15,02,27,13.80
2017,08,15,02,28,13.80
2017,08,15,02,29,13.80
2017,08,15,02,30,13.80
2017,08,15,02,31,13.80
2017,08,15,02,32,13.80
2017,08,15,02,33,13.80
2017,08,15,02,34,13.80
2017,08,15,02,35,13.80
2017,08,15,02,36,13.80
2017,08,15,02,37,13.80
2017,08,15,02,38,13.80
2017,08,15,02,39,13.80
2017,08,15,02,40,13.80
2017,08,15,02,41,13.80
2017,08,15,02,42,13.80
2017,08,15,02,43,13.80
2017,08,15,02,44,13.80
2017,08,15,02,45,13.70
2017,08,15,02,46,13.70
2017,08,15,02,47,13.70
2017,08,15,02,48,13.70
2017,08,15,02,49,13.70
2017,08,15,02,50,13.70
2017,08,15,02,51,13.70
2017,08,15,02,52,13.80
2017,08,15,02,53,13.80
2017,08,15,02,54,13.80
2017,08,15,02,55,13.80
2017,08,15,02,56,13.80
2017,08,15,02,57,13.70
2017,08,15,02,58,13.70
2017,08,15,02,59,13.70
2017,08,15,03,00,13.70
2017,08,15,03,01,13.60
2017,08,15,03,02,13.60
2017,08,15,03,03,13.60
2017,08,15,03,04,13.50
2017,08,15,03,05,13.50
2017,08,15,03,06,13.40
2017,08,15,03,07,13.40
2017,08,15,03,08,13.40
2017,08,15,03,09,13.40
2017,08,15,03,10,13.40
2017,08,15,03,11,13.40
2017,08,15,03,12,13.40
2017,08,15,03,13,13.40
2017,08,15,03,14,13.30
2017,08,15,03,15,13.30
2017,08,15,03,16,13.30
2017,08,15,03,17,13.30
2017,08,15,03,18,13.30
2017,08,15,03,19,13.30
2017,08,15,03,20,13.30
2017,08,15,03,21,13.30
2017,08,15,03,22,13.30
2017,08,15,03,23,13.40
2017,08,15,03,24,13.40
2017,08,15,03,25,13.40
2017,08,15,03,26,13.40
2017,08,15,03,27,13.40
2017,08,15,03,28,13.40
2017,08,15,03,29,13.40
2017,08,15,03,30,13.40
2017,08,15,03,31,13.40
2017,08,15,03,32,13.40
2017,08,15,03,33,13.50
2017,08,15,03,34,13.40
2017,08,15,03,35,13.50
2017,08,15,03,36,13.40
2017,08,15,03,37,13.50
2017,08,15,03,38,13.50
2017,08,15,03,39,13.50
2017,08,15,03,40,13.50
2017,08,15,03,41,13.50
2017,08,15,03,42,13.50
2017,08,15,03,43,13.50
2017,08,15,03,44,13.50
2017,08,15,03,45,13.50
2017,08,15,03,46,13.50
2017,08,15,03,47,13.50
2017,08,15,03,48,13.50
2017,08,15,03,49,13.50
2017,08,15,03,50,13.50
2017,08,15,03,51,13.50
2017,08,15,03,52,13.50
2017,08,15,03,53,13.50
2017,08,15,03,54,13.50
2017,08,15,03,55,13.50
2017,08,15,03,56,13.50
2017,08,15,03,57,13.50
2017,08,15,03,58,13.40
2017,08,15,03,59,13.40
2017,08,15,04,00,13.40
2017,08,15,04,01,13.40
2017,08,15,04,02,13.30
2017,08,15,04,03,13.30
2017,08,15,04,04,13.30
2017,08,15,04,05,13.30
2017,08,15,04,06,13.30
2017,08,15,04,07,13.20
2017,08,15,04,08,13.20
2017,08,15,04,09,13.20
2017,08,15,04,10,13.20
2017,08,15,04,11,13.20
2017,08,15,04,12,13.20
2017,08,15,04,13,13.20
2017,08,15,04,14,13.20
2017,08,15,04,15,13.20
2017,08,15,04,16,13.20
2017,08,15,04,17,13.20
2017,08,15,04,18,13.20
2017,08,15,04,19,13.20
2017,08,15,04,20,13.20
2017,08,15,04,21,13.20
2017,08,15,04,22,13.20
2017,08,15,04,23,13.20
2017,08,15,04,24,13.20
2017,08,15,04,25,13.20
2017,08,15,04,26,13.20
2017,08,15,04,27,13.20
2017,08,15,04,28,13.20
2017,08,15,04,29,13.20
2017,08,15,04,30,13.30
2017,08,15,04,31,13.30
2017,08,15,04,32,13.30
2017,08,15,04,33,13.20
2017,08,15,04,34,13.20
2017,08,15,04,35,13.20
2017,08,15,04,36,13.20
2017,08,15,04,37,13.30
2017,08,15,04,38,13.30
2017,08,15,04,39,13.30
2017,08,15,04,40,13.30
2017,08,15,04,41,13.30
2017,08,15,04,42,13.30
2017,08,15,04,43,13.30
2017,08,15,04,44,13.30
2017,08,15,04,45,13.30
2017,08,15,04,46,13.40
2017,08,15,04,47,13.40
2017,08,15,04,48,13.40
2017,08,15,04,49,13.40
2017,08,15,04,50,13.40
2017,08,15,04,51,13.40
2017,08,15,04,52,13.40
2017,08,15,04,53,13.40
2017,08,15,04,54,13.40
2017,08,15,04,55,13.30
2017,08,15,04,56,13.30
2017,08,15,04,57,13.30
2017,08,15,04,58,13.30
2017,08,15,04,59,13.30
2017,08,15,05,00,13.30
2017,08,15,05,01,13.30
2017,08,15,05,02,13.30
2017,08,15,05,03,13.30
2017,08,15,05,04,13.30
2017,08,15,05,05,13.30
2017,08,15,05,06,13.30
2017,08,15,05,07,13.30
2017,08,15,05,08,13.30
2017,08,15,05,09,13.30
2017,08,15,05,10,13.30
2017,08,15,05,11,13.20
2017,08,15,05,12,13.20
2017,08,15,05,13,13.20
2017,08,15,05,14,13.20
2017,08,15,05,15,13.20
2017,08,15,05,16,13.20
2017,08,15,05,17,13.20
2017,08,15,05,18,13.20
2017,08,15,05,19,13.20
2017,08,15,05,20,13.20
2017,08,15,05,21,13.20
2017,08,15,05,22,13.20
2017,08,15,05,23,13.20
2017,08,15,05,24,13.20
2017,08,15,05,25,13.10
2017,08,15,05,26,13.10
2017,08,15,05,27,13.10
2017,08,15,05,28,13.10
2017,08,15,05,29,13.10
2017,08,15,05,30,13.10
2017,08,15,05,31,13.10
2017,08,15,05,32,13.10
2017,08,15,05,33,13.10
2017,08,15,05,34,13.10
2017,08,15,05,35,13.10
2017,08,15,05,36,13.10
2017,08,15,05,37,13.20
2017,08,15,05,38,13.20
2017,08,15,05,39,13.20
2017,08,15,05,40,13.20
2017,08,15,05,41,13.20
2017,08,15,05,42,13.20
2017,08,15,05,43,13.20
2017,08,15,05,44,13.30
2017,08,15,05,45,13.30
2017,08,15,05,46,13.30
2017,08,15,05,47,13.30
2017,08,15,05,48,13.30
2017,08,15,05,49,13.30
2017,08,15,05,50,13.30
2017,08,15,05,51,13.30
2017,08,15,05,52,13.30
2017,08,15,05,53,13.30
2017,08,15,05,54,13.30
2017,08,15,05,55,13.30
2017,08,15,05,56,13.30
2017,08,15,05,57,13.30
2017,08,15,05,58,13.30
2017,08,15,05,59,13.30
2017,08,15,06,00,13.30
2017,08,15,06,01,13.30
2017,08,15,06,02,13.30
2017,08,15,06,03,13.30
2017,08,15,06,04,13.30
2017,08,15,06,05,13.30
2017,08,15,06,06,13.30
2017,08,15,06,07,13.30
2017,08,15,06,08,13.30
2017,08,15,06,09,13.20
2017,08,15,06,10,13.20
2017,08,15,06,11,13.20
2017,08,15,06,12,13.20
2017,08,15,06,13,13.20
2017,08,15,06,14,13.20
2017,08,15,06,15,13.20
2017,08,15,06,16,13.20
2017,08,15,06,17,13.20
2017,08,15,06,18,13.20
2017,08,15,06,19,13.20
2017,08,15,06,20,13.20
2017,08,15,06,21,13.20
2017,08,15,06,22,13.10
2017,08,15,06,23,13.10
2017,08,15,06,24,13.10
2017,08,15,06,25,13.10
2017,08,15,06,26,13.10
2017,08,15,06,27,13.10
2017,08,15,06,28,13.10
2017,08,15,06,29,13.10
2017,08,15,06,30,13.00
2017,08,15,06,31,13.00
2017,08,15,06,32,13.00
2017,08,15,06,33,13.00
2017,08,15,06,34,13.00
2017,08,15,06,35,13.00
2017,08,15,06,36,13.00
2017,08,15,06,37,13.00
2017,08,15,06,38,13.00
2017,08,15,06,39,13.00
2017,08,15,06,40,13.00
2017,08,15,06,41,13.00
2017,08,15,06,42,13.00
2017,08,15,06,43,13.00
2017,08,15,06,44,13.00
2017,08,15,06,45,13.00
2017,08,15,06,46,13.00
2017,08,15,06,47,13.00
2017,08,15,06,48,13.00
2017,08,15,06,49,13.00
2017,08,15,06,50,13.00
2017,08,15,06,51,13.00
2017,08,15,06,52,13.10
2017,08,15,06,53,13.00
2017,08,15,06,54,13.10
2017,08,15,06,55,13.00
2017,08,15,06,56,13.00
2017,08,15,06,57,13.00
2017,08,15,06,58,13.00
2017,08,15,06,59,13.00
2017,08,15,07,00,13.10
2017,08,15,07,01,13.10
2017,08,15,07,02,13.10
2017,08,15,07,03,13.10
2017,08,15,07,04,13.10
2017,08,15,07,05,13.10
2017,08,15,07,06,13.10
2017,08,15,07,07,13.10
2017,08,15,07,08,13.10
2017,08,15,07,09,13.10
2017,08,15,07,10,13.10
2017,08,15,07,11,13.10
2017,08,15,07,12,13.20
2017,08,15,07,13,13.20
2017,08,15,07,14,13.20
2017,08,15,07,15,13.20
2017,08,15,07,16,13.30
2017,08,15,07,17,13.30
2017,08,15,07,18,13.30
2017,08,15,07,19,13.30
2017,08,15,07,20,13.30
2017,08,15,07,21,13.30
2017,08,15,07,22,13.40
2017,08,15,07,23,13.40
2017,08,15,07,24,13.40
2017,08,15,07,25,13.50
2017,08,15,07,26,13.50
2017,08,15,07,27,13.50
2017,08,15,07,28,13.60
2017,08,15,07,29,13.60
2017,08,15,07,30,13.60
2017,08,15,07,31,13.70
2017,08,15,07,32,13.70
2017,08,15,07,33,13.70
2017,08,15,07,34,13.70
2017,08,15,07,35,13.80
2017,08,15,07,36,13.80
2017,08,15,07,37,13.90
2017,08,15,07,38,13.90
2017,08,15,07,39,14.00
2017,08,15,07,40,14.00
2017,08,15,07,41,14.10
2017,08,15,07,42,14.10
2017,08,15,07,43,14.10
2017,08,15,07,44,14.10
2017,08,15,07,45,14.10
2017,08,15,07,46,14.20
2017,08,15,07,47,14.20
2017,08,15,07,48,14.20
2017,08,15,07,49,14.20
2017,08,15,07,50,14.30
2017,08,15,07,51,14.30
2017,08,15,07,52,14.40
2017,08,15,07,53,14.40
2017,08,15,07,54,14.40
2017,08,15,07,55,14.40
2017,08,15,07,56,14.40
2017,08,15,07,57,14.30
2017,08,15,07,58,14.30
2017,08,15,07,59,14.30
2017,08,15,08,00,14.30
2017,08,15,08,01,14.30
2017,08,15,08,02,14.30
2017,08,15,08,03,14.30
2017,08,15,08,04,14.30
2017,08,15,08,05,14.30
2017,08,15,08,06,14.30
2017,08,15,08,07,14.30
2017,08,15,08,08,14.30
2017,08,15,08,09,14.30
2017,08,15,08,10,14.30
2017,08,15,08,11,14.20
2017,08,15,08,12,14.20
2017,08,15,08,13,14.20
2017,08,15,08,14,14.20
2017,08,15,08,15,14.30
2017,08,15,08,16,14.30
2017,08,15,08,17,14.30
2017,08,15,08,18,14.30
2017,08,15,08,19,14.30
2017,08,15,08,20,14.30
2017,08,15,08,21,14.30
2017,08,15,08,22,14.30
2017,08,15,08,23,14.30
2017,08,15,08,24,14.30
2017,08,15,08,25,14.30
2017,08,15,08,26,14.30
2017,08,15,08,27,14.30
2017,08,15,08,28,14.30
2017,08,15,08,29,14.30
2017,08,15,08,30,14.30
2017,08,15,08,31,14.30
2017,08,15,08,32,14.40
2017,08,15,08,33,14.40
2017,08,15,08,34,14.40
2017,08,15,08,35,14.40
2017,08,15,08,36,14.50
2017,08,15,08,37,14.50
2017,08,15,08,38,14.60
2017,08,15,08,39,14.60
2017,08,15,08,40,14.60
2017,08,15,08,41,14.70
2017,08,15,08,42,14.70
2017,08,15,08,43,14.70
2017,08,15,08,44,14.80
2017,08,15,08,45,14.80
2017,08,15,08,46,14.80
2017,08,15,08,47,14.90
2017,08,15,08,48,15.00
2017,08,15,08,49,15.00
2017,08,15,08,50,15.10
2017,08,15,08,51,15.10
2017,08,15,08,52,15.10
2017,08,15,08,53,15.20
2017,08,15,08,54,15.20
2017,08,15,08,55,15.20
2017,08,15,08,56,15.20
2017,08,15,08,57,15.10
2017,08,15,08,58,15.00
2017,08,15,08,59,14.90
2017,08,15,09,00,14.90
2017,08,15,09,01,14.80
2017,08,15,09,02,14.80
2017,08,15,09,03,14.70
2017,08,15,09,04,14.60
2017,08,15,09,05,14.60
2017,08,15,09,06,14.50
2017,08,15,09,07,14.50
2017,08,15,09,08,14.40
2017,08,15,09,09,14.40
2017,08,15,09,10,14.40
2017,08,15,09,11,14.40
2017,08,15,09,12,14.40
2017,08,15,09,13,14.40
2017,08,15,09,14,14.40
2017,08,15,09,15,14.40
2017,08,15,09,16,14.30
2017,08,15,09,17,14.30
2017,08,15,09,18,14.30
2017,08,15,09,19,14.30
2017,08,15,09,20,14.40
2017,08,15,09,21,14.40
2017,08,15,09,22,14.40
2017,08,15,09,23,14.40
2017,08,15,09,24,14.40
2017,08,15,09,25,14.50
2017,08,15,09,26,14.50
2017,08,15,09,27,14.50
2017,08,15,09,28,14.50
2017,08,15,09,29,14.50
2017,08,15,09,30,14.50
2017,08,15,09,31,14.50
2017,08,15,09,32,14.50
2017,08,15,09,33,14.60
2017,08,15,09,34,14.70
2017,08,15,09,35,14.80
2017,08,15,09,36,14.80
2017,08,15,09,37,14.90
2017,08,15,09,38,15.00
2017,08,15,09,39,15.00
2017,08,15,09,40,15.10
2017,08,15,09,41,15.10
2017,08,15,09,42,15.20
2017,08,15,09,43,15.30
2017,08,15,09,44,15.30
2017,08,15,09,45,15.40
2017,08,15,09,46,15.50
2017,08,15,09,47,15.60
2017,08,15,09,48,15.60
2017,08,15,09,49,15.70
2017,08,15,09,50,15.80
2017,08,15,09,51,15.80
2017,08,15,09,52,15.90
2017,08,15,09,53,15.90
2017,08,15,09,54,15.90
2017,08,15,09,55,15.80
2017,08,15,09,56,15.80
2017,08,15,09,57,15.80
2017,08,15,09,58,15.80
2017,08,15,09,59,15.70
2017,08,15,10,00,15.70
2017,08,15,10,01,15.70
2017,08,15,10,02,15.80
2017,08,15,10,03,15.80
2017,08,15,10,04,15.80
2017,08,15,10,05,15.80
2017,08,15,10,06,15.80
2017,08,15,10,07,15.80
2017,08,15,10,08,15.90
2017,08,15,10,09,15.90
2017,08,15,10,10,15.90
2017,08,15,10,11,15.90
2017,08,15,10,12,15.90
2017,08,15,10,13,15.90
2017,08,15,10,14,15.90
2017,08,15,10,15,15.90
2017,08,15,10,16,15.90
2017,08,15,10,17,15.90
2017,08,15,10,18,15.90
2017,08,15,10,19,15.90
2017,08,15,10,20,16.00
2017,08,15,10,21,16.00
2017,08,15,10,22,16.00
2017,08,15,10,23,16.10
2017,08,15,10,24,16.10
2017,08,15,10,25,16.10
2017,08,15,10,26,16.10
2017,08,15,10,27,16.10
2017,08,15,10,28,16.20
2017,08,15,10,29,16.20
2017,08,15,10,30,16.20
2017,08,15,10,31,16.30
2017,08,15,10,32,16.20
2017,08,15,10,33,16.20
2017,08,15,10,34,16.20
2017,08,15,10,35,16.20
2017,08,15,10,36,16.30
2017,08,15,10,37,16.20
2017,08,15,10,38,16.30
2017,08,15,10,39,16.30
2017,08,15,10,40,16.30
2017,08,15,10,41,16.40
2017,08,15,10,42,16.40
2017,08,15,10,43,16.50
2017,08,15,10,44,16.50
2017,08,15,10,45,16.60
2017,08,15,10,46,16.70
2017,08,15,10,47,16.70
2017,08,15,10,48,16.70
2017,08,15,10,49,16.70
2017,08,15,10,50,16.70
2017,08,15,10,51,16.70
2017,08,15,10,52,16.70
2017,08,15,10,53,16.80
2017,08,15,10,54,16.80
2017,08,15,10,55,16.90
2017,08,15,10,56,16.90
2017,08,15,10,57,17.00
2017,08,15,10,58,17.10
2017,08,15,10,59,17.20
2017,08,15,11,00,17.30
2017,08,15,11,01,17.30
2017,08,15,11,02,17.30
2017,08,15,11,03,17.30
2017,08,15,11,04,17.30
2017,08,15,11,05,17.30
2017,08,15,11,06,17.30
2017,08,15,11,07,17.30
2017,08,15,11,08,17.30
2017,08,15,11,09,17.20
2017,08,15,11,10,17.20
2017,08,15,11,11,17.10
2017,08,15,11,12,17.10
2017,08,15,11,13,17.10
2017,08,15,11,14,17.00
2017,08,15,11,15,16.90
2017,08,15,11,16,16.90
2017,08,15,11,17,16.90
2017,08,15,11,18,16.80
2017,08,15,11,19,16.80
2017,08,15,11,20,16.80
2017,08,15,11,21,16.80
2017,08,15,11,22,16.70
2017,08,15,11,23,16.70
2017,08,15,11,24,16.70
2017,08,15,11,25,16.70
2017,08,15,11,26,16.70
2017,08,15,11,27,16.70
2017,08,15,11,28,16.80
2017,08,15,11,29,16.80
2017,08,15,11,30,16.80
2017,08,15,11,31,16.90
2017,08,15,11,32,16.90
2017,08,15,11,33,17.00
2017,08,15,11,34,17.10
2017,08,15,11,35,17.20
2017,08,15,11,36,17.20
2017,08,15,11,37,17.30
2017,08,15,11,38,17.30
2017,08,15,11,39,17.40
2017,08,15,11,40,17.40
2017,08,15,11,41,17.50
2017,08,15,11,42,17.60
2017,08,15,11,43,17.60
2017,08,15,11,44,17.60
2017,08,15,11,45,17.70
2017,08,15,11,46,17.80
2017,08,15,11,47,17.90
2017,08,15,11,48,17.90
2017,08,15,11,49,17.90
2017,08,15,11,50,17.90
2017,08,15,11,51,17.80
2017,08,15,11,52,17.80
2017,08,15,11,53,17.90
2017,08,15,11,54,17.90
2017,08,15,11,55,17.90
2017,08,15,11,56,17.90
2017,08,15,11,57,18.00
2017,08,15,11,58,17.90
2017,08,15,11,59,17.90
2017,08,15,12,00,18.00
2017,08,15,12,01,18.00
2017,08,15,12,02,18.00
2017,08,15,12,03,18.10
2017,08,15,12,04,18.10
2017,08,15,12,05,18.10
2017,08,15,12,06,18.20
2017,08,15,12,07,18.30
2017,08,15,12,08,18.30
2017,08,15,12,09,18.30
2017,08,15,12,10,18.30
2017,08,15,12,11,18.30
2017,08,15,12,12,18.30
2017,08,15,12,13,18.20
2017,08,15,12,14,18.10
2017,08,15,12,15,18.10
2017,08,15,12,16,18.10
2017,08,15,12,17,18.10
2017,08,15,12,18,18.10
2017,08,15,12,19,18.20
2017,08,15,12,20,18.20
2017,08,15,12,21,18.20
2017,08,15,12,22,18.20
2017,08,15,12,23,18.20
2017,08,15,12,24,18.30
2017,08,15,12,25,18.30
2017,08,15,12,26,18.40
2017,08,15,12,27,18.40
2017,08,15,12,28,18.50
2017,08,15,12,29,18.50
2017,08,15,12,30,18.60
2017,08,15,12,31,18.60
2017,08,15,12,32,18.60
2017,08,15,12,33,18.60
2017,08,15,12,34,18.70
2017,08,15,12,35,18.70
2017,08,15,12,36,18.80
2017,08,15,12,37,18.80
2017,08,15,12,38,18.90
2017,08,15,12,39,19.00
2017,08,15,12,40,19.10
2017,08,15,12,41,19.20
2017,08,15,12,42,19.20
2017,08,15,12,43,19.20
2017,08,15,12,44,19.20
2017,08,15,12,45,19.20
2017,08,15,12,46,19.20
2017,08,15,12,47,19.20
2017,08,15,12,48,19.20
2017,08,15,12,49,19.20
2017,08,15,12,50,19.30
2017,08,15,12,51,19.40
2017,08,15,12,52,19.40
2017,08,15,12,53,19.50
2017,08,15,12,54,19.60
2017,08,15,12,55,19.60
2017,08,15,12,56,19.70
2017,08,15,12,57,19.80
2017,08,15,12,58,19.70
2017,08,15,12,59,19.70
2017,08,15,13,00,19.80
2017,08,15,13,01,19.80
2017,08,15,13,02,19.80
2017,08,15,13,03,19.90
2017,08,15,13,04,19.90
2017,08,15,13,05,20.00
2017,08,15,13,06,20.10
2017,08,15,13,07,20.20
2017,08,15,13,08,20.30
2017,08,15,13,09,20.40
2017,08,15,13,10,20.50
2017,08,15,13,11,20.60
2017,08,15,13,12,20.70
2017,08,15,13,13,20.80
2017,08,15,13,14,20.80
2017,08,15,13,15,20.90
2017,08,15,13,16,20.90
2017,08,15,13,17,21.00
2017,08,15,13,18,21.00
2017,08,15,13,19,21.00
2017,08,15,13,20,21.00
2017,08,15,13,21,20.90
2017,08,15,13,22,20.70
2017,08,15,13,23,20.60
2017,08,15,13,24,20.50
2017,08,15,13,25,20.40
2017,08,15,13,26,20.30
2017,08,15,13,27,20.30
2017,08,15,13,28,20.30
2017,08,15,13,29,20.20
2017,08,15,13,30,20.20
2017,08,15,13,31,20.20
2017,08,15,13,32,20.20
2017,08,15,13,33,20.20
2017,08,15,13,34,20.20
2017,08,15,13,35,20.20
2017,08,15,13,36,20.20
2017,08,15,13,37,20.10
2017,08,15,13,38,20.10
2017,08,15,13,39,20.20
2017,08,15,13,40,20.20
2017,08,15,13,41,20.30
2017,08,15,13,42,20.30
2017,08,15,13,43,20.40
2017,08,15,13,44,20.40
2017,08,15,13,45,20.40
2017,08,15,13,46,20.40
2017,08,15,13,47,20.40
2017,08,15,13,48,20.40
2017,08,15,13,49,20.40
2017,08,15,13,50,20.40
2017,08,15,13,51,20.40
2017,08,15,13,52,20.40
2017,08,15,13,53,20.50
2017,08,15,13,54,20.50
2017,08,15,13,55,20.50
2017,08,15,13,56,20.60
2017,08,15,13,57,20.60
2017,08,15,13,58,20.60
2017,08,15,13,59,20.60
2017,08,15,14,00,20.60
2017,08,15,14,01,20.50
2017,08,15,14,02,20.50
2017,08,15,14,03,20.50
2017,08,15,14,04,20.50
2017,08,15,14,05,20.50
2017,08,15,14,06,20.60
2017,08,15,14,07,20.60
2017,08,15,14,08,20.70
2017,08,15,14,09,20.80
2017,08,15,14,10,20.80
2017,08,15,14,11,20.90
2017,08,15,14,12,20.90
2017,08,15,14,13,21.00
2017,08,15,14,14,21.10
2017,08,15,14,15,21.20
2017,08,15,14,16,21.20
2017,08,15,14,17,21.20
2017,08,15,14,18,21.20
2017,08,15,14,19,21.20
2017,08,15,14,20,21.20
2017,08,15,14,21,21.20
2017,08,15,14,22,21.20
2017,08,15,14,23,21.20
2017,08,15,14,24,21.20
2017,08,15,14,25,21.20
2017,08,15,14,26,21.10
2017,08,15,14,27,21.10
2017,08,15,14,28,21.10
2017,08,15,14,29,21.10
2017,08,15,14,30,21.10
2017,08,15,14,31,21.00
2017,08,15,14,32,21.10
2017,08,15,14,33,21.10
2017,08,15,14,34,21.10
2017,08,15,14,35,21.10
2017,08,15,14,36,21.10
2017,08,15,14,37,21.20
2017,08,15,14,38,21.20
2017,08,15,14,39,21.20
2017,08,15,14,40,21.20
2017,08,15,14,41,21.20
2017,08,15,14,42,21.10
2017,08,15,14,43,21.10
2017,08,15,14,44,21.00
2017,08,15,14,45,20.90
2017,08,15,14,46,20.90
2017,08,15,14,47,20.90
2017,08,15,14,48,20.90
2017,08,15,14,49,20.90
2017,08,15,14,50,20.90
2017,08,15,14,51,20.90
2017,08,15,14,52,21.00
2017,08,15,14,53,21.00
2017,08,15,14,54,21.10
2017,08,15,14,55,21.10
2017,08,15,14,56,21.20
2017,08,15,14,57,21.30
2017,08,15,14,58,21.30
2017,08,15,14,59,21.40
2017,08,15,15,00,21.50
2017,08,15,15,01,21.60
2017,08,15,15,02,21.70
2017,08,15,15,03,21.70
2017,08,15,15,04,21.80
2017,08,15,15,05,21.80
2017,08,15,15,06,21.90
2017,08,15,15,07,22.00
2017,08,15,15,08,22.00
2017,08,15,15,09,22.10
2017,08,15,15,10,22.10
2017,08,15,15,11,22.20
2017,08,15,15,12,22.20
2017,08,15,15,13,22.20
2017,08,15,15,14,22.20
2017,08,15,15,15,22.20
2017,08,15,15,16,22.10
2017,08,15,15,17,22.10
2017,08,15,15,18,22.10
2017,08,15,15,19,22.10
2017,08,15,15,20,22.00
2017,08,15,15,21,21.90
2017,08,15,15,22,21.80
2017,08,15,15,23,21.80
2017,08,15,15,24,21.80
2017,08,15,15,25,21.70
2017,08,15,15,26,21.70
2017,08,15,15,27,21.70
2017,08,15,15,28,21.70
2017,08,15,15,29,21.70
2017,08,15,15,30,21.70
2017,08,15,15,31,21.70
2017,08,15,15,32,21.70
2017,08,15,15,33,21.80
2017,08,15,15,34,21.80
2017,08,15,15,35,21.90
2017,08,15,15,36,22.00
2017,08,15,15,37,22.00
2017,08,15,15,38,22.10
2017,08,15,15,39,22.20
2017,08,15,15,40,22.30
2017,08,15,15,41,22.30
2017,08,15,15,42,22.30
2017,08,15,15,43,22.30
2017,08,15,15,44,22.30
2017,08,15,15,45,22.20
2017,08,15,15,46,22.20
2017,08,15,15,47,22.20
2017,08,15,15,48,22.20
2017,08,15,15,49,22.20
2017,08,15,15,50,22.20
2017,08,15,15,51,22.30
2017,08,15,15,52,22.30
2017,08,15,15,53,22.40
2017,08,15,15,54,22.50
2017,08,15,15,55,22.60
2017,08,15,15,56,22.70
2017,08,15,15,57,22.80
2017,08,15,15,58,22.90
2017,08,15,15,59,22.90
2017,08,15,16,00,23.00
2017,08,15,16,01,23.00
2017,08,15,16,02,22.90
2017,08,15,16,03,22.90
2017,08,15,16,04,22.90
2017,08,15,16,05,22.90
2017,08,15,16,06,22.90
2017,08,15,16,07,23.00
2017,08,15,16,08,23.00
2017,08,15,16,09,23.10
2017,08,15,16,10,23.10
2017,08,15,16,11,23.20
2017,08,15,16,12,23.10
2017,08,15,16,13,23.00
2017,08,15,16,14,23.00
2017,08,15,16,15,22.90
2017,08,15,16,16,22.80
2017,08,15,16,17,22.80
2017,08,15,16,18,22.80
2017,08,15,16,19,22.70
2017,08,15,16,20,22.70
2017,08,15,16,21,22.70
2017,08,15,16,22,22.60
2017,08,15,16,23,22.60
2017,08,15,16,24,22.60
2017,08,15,16,25,22.60
2017,08,15,16,26,22.60
2017,08,15,16,27,22.70
2017,08,15,16,28,22.80
2017,08,15,16,29,22.80
2017,08,15,16,30,22.90
2017,08,15,16,31,22.90
2017,08,15,16,32,23.00
2017,08,15,16,33,23.00
2017,08,15,16,34,23.10
2017,08,15,16,35,23.20
2017,08,15,16,36,23.30
2017,08,15,16,37,23.40
2017,08,15,16,38,23.50
2017,08,15,16,39,23.60
2017,08,15,16,40,23.70
2017,08,15,16,41,23.80
2017,08,15,16,42,24.00
2017,08,15,16,43,24.10
2017,08,15,16,44,24.10
2017,08,15,16,45,24.20
2017,08,15,16,46,24.30
2017,08,15,16,47,24.30
2017,08,15,16,48,24.30
2017,08,15,16,49,24.30
2017,08,15,16,50,24.30
2017,08,15,16,51,24.20
2017,08,15,16,52,24.20
2017,08,15,16,53,24.30
2017,08,15,16,54,24.30
2017,08,15,16,55,24.30
2017,08,15,16,56,24.30
2017,08,15,16,57,24.30
2017,08,15,16,58,24.30
2017,08,15,16,59,24.30
2017,08,15,17,00,24.30
2017,08,15,17,01,24.30
2017,08,15,17,02,24.30
2017,08,15,17,03,24.20
2017,08,15,17,04,24.10
2017,08,15,17,05,24.10
2017,08,15,17,06,24.00
2017,08,15,17,07,24.00
2017,08,15,17,08,23.90
2017,08,15,17,09,23.80
2017,08,15,17,10,23.80
2017,08,15,17,11,23.70
2017,08,15,17,12,23.60
2017,08,15,17,13,23.60
2017,08,15,17,14,23.60
2017,08,15,17,15,23.50
2017,08,15,17,16,23.50
2017,08,15,17,17,23.50
2017,08,15,17,18,23.50
2017,08,15,17,19,23.50